,,Stat5,,Stat1,,Stat2,,Stat3,,Stat4,,Wind1,,Wind1,
time,status,PA1M_AVG,status,PR1M_SUM,status,RH1M_AVG,status,SR1M_AVG,status,TA1M_AVG,status,W1dAve1m,status,W1sAve1m,
2002-01-07, 00:00:00,VALID,919.514,VALID,0,VALID,86.3102,VALID,0.0169808,VALID,21.4499,VALID,137,VALID,1.45059,
2002-01-07, 00:01:00,VALID,919.496,VALID,0,VALID,86.5403,VALID,0,VALID,21.4669,VALID,130,VALID,1.70806,
2002-01-07, 00:02:00,VALID,919.49,VALID,0,VALID,86.6573,VALID,0,VALID,21.4448,VALID,122,VALID,1.53248,
2002-01-07, 00:03:00,VALID,919.491,VALID,0,VALID,86.8926,VALID,-0.0169808,VALID,21.4219,VALID,135,VALID,1.2522,
2002-01-07, 00:04:00,VALID,919.491,VALID,0,VALID,87.0502,VALID,0,VALID,21.3764,VALID,128,VALID,1.39001,
2002-01-07, 00:05:00,VALID,919.494,VALID,0,VALID,87.1202,VALID,0,VALID,21.3379,VALID,128,VALID,1.45228,
2002-01-07, 00:06:00,VALID,919.489,VALID,0,VALID,86.9879,VALID,0,VALID,21.3212,VALID,138,VALID,1.54021,
2002-01-07, 00:07:00,VALID,919.471,VALID,0,VALID,86.8595,VALID,0.0169808,VALID,21.3441,VALID,138,VALID,1.56328,
2002-01-07, 00:08:00,VALID,919.462,VALID,0,VALID,86.9065,VALID,0,VALID,21.3541,VALID,109,VALID,1.21334,
2002-01-07, 00:09:00,VALID,919.456,VALID,0,VALID,87.1405,VALID,0.0169808,VALID,21.3312,VALID,110,VALID,1.13862,
2002-01-07, 00:10:00,VALID,919.444,VALID,0,VALID,87.419,VALID,0,VALID,21.2862,VALID,102,VALID,1.47754,
2002-01-07, 00:11:00,VALID,919.445,VALID,0,VALID,87.7979,VALID,0.0169808,VALID,21.2079,VALID,124,VALID,1.22266,
2002-01-07, 00:12:00,VALID,919.455,VALID,0,VALID,88.0764,VALID,0.0339617,VALID,21.1537,VALID,140,VALID,1.42361,
2002-01-07, 00:13:00,VALID,919.435,VALID,0,VALID,88.023,VALID,0,VALID,21.1311,VALID,152,VALID,1.92428,
2002-01-07, 00:14:00,VALID,919.421,VALID,0,VALID,87.8259,VALID,0,VALID,21.1543,VALID,153,VALID,2.24116,
2002-01-07, 00:15:00,VALID,919.413,VALID,0,VALID,87.5983,VALID,0,VALID,21.1925,VALID,141,VALID,1.94572,
2002-01-07, 00:16:00,VALID,919.423,VALID,0,VALID,87.4292,VALID,0.0169808,VALID,21.2251,VALID,134,VALID,1.32052,
2002-01-07, 00:17:00,VALID,919.418,VALID,0,VALID,87.3745,VALID,-0.0169808,VALID,21.2509,VALID,118,VALID,1.43121,
2002-01-07, 00:18:00,VALID,919.418,VALID,0,VALID,87.433,VALID,0,VALID,21.2415,VALID,143,VALID,1.55574,
2002-01-07, 00:19:00,VALID,919.427,VALID,0,VALID,87.5818,VALID,-0.0169808,VALID,21.2348,VALID,131,VALID,1.87644,
2002-01-07, 00:20:00,VALID,919.416,VALID,0,VALID,87.4711,VALID,0,VALID,21.241,VALID,141,VALID,1.61899,
2002-01-07, 00:21:00,VALID,919.411,VALID,0,VALID,87.4915,VALID,-0.0169808,VALID,21.2539,VALID,141,VALID,1.63742,
2002-01-07, 00:22:00,VALID,919.417,VALID,0,VALID,87.5741,VALID,0,VALID,21.2477,VALID,140,VALID,1.67019,
2002-01-07, 00:23:00,VALID,919.419,VALID,0,VALID,87.7127,VALID,0,VALID,21.2318,VALID,140,VALID,2.32093,
2002-01-07, 00:24:00,VALID,919.396,VALID,0,VALID,87.6759,VALID,0,VALID,21.2412,VALID,143,VALID,2.05308,
2002-01-07, 00:25:00,VALID,919.394,VALID,0,VALID,87.5907,VALID,0,VALID,21.241,VALID,140,VALID,2.12981,
2002-01-07, 00:26:00,VALID,919.408,VALID,0,VALID,87.5538,VALID,0,VALID,21.2674,VALID,137,VALID,1.66429,
2002-01-07, 00:27:00,VALID,919.408,VALID,0,VALID,87.6047,VALID,0,VALID,21.2569,VALID,139,VALID,1.54256,
2002-01-07, 00:28:00,VALID,919.405,VALID,0,VALID,87.8539,VALID,0,VALID,21.238,VALID,146,VALID,1.97574,
2002-01-07, 00:29:00,VALID,919.39,VALID,0,VALID,87.9111,VALID,0,VALID,21.2315,VALID,145,VALID,1.89106,
2002-01-07, 00:30:00,VALID,919.384,VALID,0,VALID,88.037,VALID,0.0169808,VALID,21.2248,VALID,144,VALID,2.11523,
2002-01-07, 00:31:00,VALID,919.37,VALID,0,VALID,88.1247,VALID,0.0339617,VALID,21.2218,VALID,140,VALID,1.38939,
2002-01-07, 00:32:00,VALID,919.38,VALID,0,VALID,88.2405,VALID,0,VALID,21.196,VALID,145,VALID,2.32813,
2002-01-07, 00:33:00,VALID,919.37,VALID,0,VALID,88.2977,VALID,0,VALID,21.179,VALID,141,VALID,2.11808,
2002-01-07, 00:34:00,VALID,919.362,VALID,0,VALID,88.3231,VALID,0,VALID,21.1831,VALID,163,VALID,1.94799,
2002-01-07, 00:35:00,VALID,919.345,VALID,0,VALID,88.4337,VALID,0,VALID,21.1801,VALID,131,VALID,1.96772,
2002-01-07, 00:36:00,VALID,919.345,VALID,0,VALID,88.6703,VALID,0.0509425,VALID,21.1346,VALID,132,VALID,1.19471,
2002-01-07, 00:37:00,VALID,919.35,VALID,0,VALID,88.8737,VALID,-0.0849042,VALID,21.0979,VALID,130,VALID,1.30195,
2002-01-07, 00:38:00,VALID,919.319,VALID,0,VALID,89.0517,VALID,-0.101885,VALID,21.0589,VALID,130,VALID,1.58388,
2002-01-07, 00:39:00,VALID,919.3,VALID,0,VALID,89.245,VALID,-0.101885,VALID,21.0199,VALID,136,VALID,1.72234,
2002-01-07, 00:40:00,VALID,919.299,VALID,0,VALID,89.3111,VALID,-0.0849042,VALID,21.0166,VALID,138,VALID,1.60577,
2002-01-07, 00:41:00,VALID,919.287,VALID,0,VALID,89.3976,VALID,-0.0509425,VALID,20.9972,VALID,140,VALID,1.39864,
2002-01-07, 00:42:00,VALID,919.272,VALID,0,VALID,89.404,VALID,-0.0339617,VALID,20.9972,VALID,128,VALID,1.66026,
2002-01-07, 00:43:00,VALID,919.274,VALID,0,VALID,89.5019,VALID,-0.0849042,VALID,20.9781,VALID,131,VALID,1.33348,
2002-01-07, 00:44:00,VALID,919.27,VALID,0,VALID,89.5464,VALID,-0.0509425,VALID,20.9579,VALID,121,VALID,1.10781,
2002-01-07, 00:45:00,VALID,919.272,VALID,0,VALID,89.6125,VALID,-0.0509425,VALID,20.9453,VALID,134,VALID,0.864583,
2002-01-07, 00:46:00,VALID,919.242,VALID,0,VALID,89.7994,VALID,-0.0339617,VALID,20.9291,VALID,136,VALID,1.22005,
2002-01-07, 00:47:00,VALID,919.224,VALID,0,VALID,89.8986,VALID,-0.0169808,VALID,20.9068,VALID,145,VALID,1.00253,
2002-01-07, 00:48:00,VALID,919.213,VALID,0,VALID,90.0245,VALID,-0.0339617,VALID,20.8973,VALID,137,VALID,1.19613,
2002-01-07, 00:49:00,VALID,919.215,VALID,0,VALID,90.125,VALID,-0.0679233,VALID,20.8812,VALID,128,VALID,1.49029,
2002-01-07, 00:50:00,VALID,919.202,VALID,0,VALID,90.1796,VALID,-0.0849042,VALID,20.8715,VALID,135,VALID,1.36508,
2002-01-07, 00:51:00,VALID,919.191,VALID,0,VALID,90.2178,VALID,-0.0339617,VALID,20.8742,VALID,141,VALID,1.4125,
2002-01-07, 00:52:00,VALID,919.179,VALID,0,VALID,90.2,VALID,-0.0679233,VALID,20.8841,VALID,140,VALID,1.39083,
2002-01-07, 00:53:00,VALID,919.188,VALID,0,VALID,90.1034,VALID,-0.0169808,VALID,20.8874,VALID,131,VALID,1.8125,
2002-01-07, 00:54:00,VALID,919.192,VALID,0,VALID,90.0868,VALID,-0.0509425,VALID,20.8807,VALID,134,VALID,1.14482,
2002-01-07, 00:55:00,VALID,919.179,VALID,0,VALID,90.1873,VALID,-0.0679233,VALID,20.8874,VALID,154,VALID,1.35527,
2002-01-07, 00:56:00,VALID,919.185,VALID,0,VALID,90.2648,VALID,-0.0679233,VALID,20.8941,VALID,152,VALID,1.61883,
2002-01-07, 00:57:00,VALID,919.188,VALID,0,VALID,90.2928,VALID,-0.0849042,VALID,20.8973,VALID,144,VALID,1.12829,
2002-01-07, 00:58:00,VALID,919.185,VALID,0,VALID,90.3615,VALID,-0.0849042,VALID,20.8971,VALID,149,VALID,1.58984,
2002-01-07, 00:59:00,VALID,919.196,VALID,0,VALID,90.3437,VALID,-0.0509425,VALID,20.8809,VALID,136,VALID,0.92528,
2002-01-07, 01:00:00,VALID,919.192,VALID,0,VALID,90.3221,VALID,0,VALID,20.8844,VALID,152,VALID,1.63393,
2002-01-07, 01:01:00,VALID,919.179,VALID,0,VALID,90.2534,VALID,-0.101885,VALID,20.8976,VALID,153,VALID,2.09434,
2002-01-07, 01:02:00,VALID,919.186,VALID,0,VALID,90.0067,VALID,-0.101885,VALID,20.9135,VALID,159,VALID,2.19227,
2002-01-07, 01:03:00,VALID,919.201,VALID,0,VALID,89.9241,VALID,-0.101885,VALID,20.969,VALID,154,VALID,1.48351,
2002-01-07, 01:04:00,VALID,919.2,VALID,0,VALID,89.9431,VALID,-0.0849042,VALID,20.9784,VALID,155,VALID,1.72716,
2002-01-07, 01:05:00,VALID,919.208,VALID,0,VALID,90.0538,VALID,-0.0849042,VALID,20.9881,VALID,152,VALID,1.24753,
2002-01-07, 01:06:00,VALID,919.21,VALID,0,VALID,90.1351,VALID,-0.118866,VALID,20.9757,VALID,152,VALID,1.08203,
2002-01-07, 01:07:00,VALID,919.199,VALID,0,VALID,90.1886,VALID,-0.101885,VALID,20.9655,VALID,150,VALID,1.61571,
2002-01-07, 01:08:00,VALID,919.172,VALID,0,VALID,90.1886,VALID,-0.101885,VALID,20.9724,VALID,158,VALID,1.62977,
2002-01-07, 01:09:00,VALID,919.174,VALID,0,VALID,90.0716,VALID,-0.101885,VALID,20.9792,VALID,154,VALID,1.47994,
2002-01-07, 01:10:00,VALID,919.158,VALID,0,VALID,90.055,VALID,-0.101885,VALID,20.9814,VALID,152,VALID,1.87397,
2002-01-07, 01:11:00,VALID,919.159,VALID,0,VALID,90.0245,VALID,-0.0509425,VALID,20.991,VALID,147,VALID,1.78065,
2002-01-07, 01:12:00,VALID,919.142,VALID,0,VALID,89.9864,VALID,-0.0679233,VALID,21.0207,VALID,149,VALID,1.66166,
2002-01-07, 01:13:00,VALID,919.145,VALID,0,VALID,89.9228,VALID,-0.0849042,VALID,21.0338,VALID,152,VALID,1.93138,
2002-01-07, 01:14:00,VALID,919.127,VALID,0,VALID,89.9253,VALID,-0.118866,VALID,21.0368,VALID,157,VALID,1.32093,
2002-01-07, 01:15:00,VALID,919.108,VALID,0,VALID,89.9012,VALID,-0.0849042,VALID,21.0266,VALID,164,VALID,1.21595,
2002-01-07, 01:16:00,VALID,919.098,VALID,0,VALID,89.9749,VALID,-0.118866,VALID,21.047,VALID,158,VALID,1.39683,
2002-01-07, 01:17:00,VALID,919.072,VALID,0,VALID,90.0372,VALID,-0.118866,VALID,21.0236,VALID,157,VALID,1.72794,
2002-01-07, 01:18:00,VALID,919.059,VALID,0,VALID,89.9088,VALID,-0.101885,VALID,21.0274,VALID,144,VALID,1.85444,
2002-01-07, 01:19:00,VALID,919.066,VALID,0,VALID,89.9609,VALID,-0.101885,VALID,21.0468,VALID,148,VALID,1.50929,
2002-01-07, 01:20:00,VALID,919.059,VALID,0,VALID,90.008,VALID,-0.101885,VALID,21.0395,VALID,150,VALID,1.13043,
2002-01-07, 01:21:00,VALID,919.065,VALID,0,VALID,90.0131,VALID,-0.0849042,VALID,21.0495,VALID,157,VALID,1.79905,
2002-01-07, 01:22:00,VALID,919.041,VALID,0,VALID,89.9648,VALID,0,VALID,21.0511,VALID,153,VALID,1.4449,
2002-01-07, 01:23:00,VALID,919.05,VALID,0,VALID,90.0054,VALID,0.0339617,VALID,21.0643,VALID,150,VALID,1.57622,
2002-01-07, 01:24:00,VALID,919.043,VALID,0,VALID,90.0817,VALID,0.0339617,VALID,21.0573,VALID,140,VALID,1.72076,
2002-01-07, 01:25:00,VALID,919.011,VALID,0,VALID,90.0881,VALID,0.0339617,VALID,21.0611,VALID,146,VALID,1.45134,
2002-01-07, 01:26:00,VALID,918.999,VALID,0,VALID,90.1339,VALID,0.0169808,VALID,21.0543,VALID,143,VALID,1.41612,
2002-01-07, 01:27:00,VALID,918.974,VALID,0,VALID,90.1949,VALID,0.0169808,VALID,21.0546,VALID,154,VALID,1.49259,
2002-01-07, 01:28:00,VALID,918.959,VALID,0,VALID,90.2699,VALID,0,VALID,21.0385,VALID,151,VALID,1.41699,
2002-01-07, 01:29:00,VALID,918.932,VALID,0,VALID,90.2483,VALID,0.0169808,VALID,21.0121,VALID,152,VALID,1.50329,
2002-01-07, 01:30:00,VALID,918.904,VALID,0,VALID,90.2674,VALID,0,VALID,21.0188,VALID,158,VALID,1.8144,
2002-01-07, 01:31:00,VALID,918.877,VALID,0,VALID,90.2979,VALID,0.0509425,VALID,21.0021,VALID,150,VALID,1.35597,
2002-01-07, 01:32:00,VALID,918.876,VALID,0,VALID,90.3551,VALID,0.0169808,VALID,21.0126,VALID,147,VALID,1.90625,
2002-01-07, 01:33:00,VALID,918.869,VALID,0,VALID,90.392,VALID,0,VALID,20.9965,VALID,148,VALID,2.41126,
2002-01-07, 01:34:00,VALID,918.878,VALID,0,VALID,90.3882,VALID,0,VALID,20.9935,VALID,147,VALID,1.98482,
2002-01-07, 01:35:00,VALID,918.87,VALID,0,VALID,90.35,VALID,0,VALID,20.9965,VALID,148,VALID,1.80273,
2002-01-07, 01:36:00,VALID,918.843,VALID,0,VALID,90.3373,VALID,0.0169808,VALID,20.9932,VALID,152,VALID,1.602,
2002-01-07, 01:37:00,VALID,918.835,VALID,0,VALID,90.3488,VALID,-0.0339617,VALID,21.0061,VALID,144,VALID,2.023,
2002-01-07, 01:38:00,VALID,918.834,VALID,0,VALID,90.2369,VALID,0,VALID,20.986,VALID,142,VALID,1.96432,
2002-01-07, 01:39:00,VALID,918.812,VALID,0,VALID,90.1364,VALID,0,VALID,21.0088,VALID,146,VALID,1.77364,
2002-01-07, 01:40:00,VALID,918.8,VALID,0,VALID,90.0563,VALID,0,VALID,21.0126,VALID,144,VALID,2.15055,
2002-01-07, 01:41:00,VALID,918.78,VALID,0,VALID,90.0131,VALID,0,VALID,21.025,VALID,149,VALID,2.10262,
2002-01-07, 01:42:00,VALID,918.757,VALID,0,VALID,89.905,VALID,-0.0169808,VALID,21.0215,VALID,152,VALID,2.11049,
2002-01-07, 01:43:00,VALID,918.732,VALID,0,VALID,89.7766,VALID,0,VALID,21.0344,VALID,150,VALID,1.96402,
2002-01-07, 01:44:00,VALID,918.715,VALID,0,VALID,89.8389,VALID,0,VALID,21.0509,VALID,156,VALID,1.24493,
2002-01-07, 01:45:00,VALID,918.69,VALID,0,VALID,89.9024,VALID,0,VALID,21.0546,VALID,164,VALID,1.77744,
2002-01-07, 01:46:00,VALID,918.653,VALID,0,VALID,89.7181,VALID,0,VALID,21.0444,VALID,163,VALID,2.11211,
2002-01-07, 01:47:00,VALID,918.662,VALID,0,VALID,89.7333,VALID,0,VALID,21.0576,VALID,145,VALID,1.794,
2002-01-07, 01:48:00,VALID,918.662,VALID,0,VALID,89.6914,VALID,0,VALID,21.0568,VALID,143,VALID,1.78495,
2002-01-07, 01:49:00,VALID,918.641,VALID,0,VALID,89.8172,VALID,0,VALID,21.0573,VALID,129,VALID,1.33281,
2002-01-07, 01:50:00,VALID,918.645,VALID,0,VALID,89.8478,VALID,0,VALID,21.0476,VALID,135,VALID,1.31571,
2002-01-07, 01:51:00,VALID,918.654,VALID,0,VALID,89.7092,VALID,0,VALID,21.0282,VALID,145,VALID,2.18929,
2002-01-07, 01:52:00,VALID,918.664,VALID,0,VALID,89.5311,VALID,0,VALID,21.0344,VALID,136,VALID,1.21484,
2002-01-07, 01:53:00,VALID,918.649,VALID,0,VALID,89.493,VALID,0.0339617,VALID,21.0514,VALID,137,VALID,1.18685,
2002-01-07, 01:54:00,VALID,918.649,VALID,0,VALID,89.5032,VALID,-0.0339617,VALID,21.0543,VALID,145,VALID,1.36046,
2002-01-07, 01:55:00,VALID,918.637,VALID,0,VALID,89.54,VALID,0,VALID,21.071,VALID,139,VALID,1.62039,
2002-01-07, 01:56:00,VALID,918.635,VALID,0,VALID,89.6558,VALID,-0.0169808,VALID,21.064,VALID,147,VALID,1.44757,
2002-01-07, 01:57:00,VALID,918.65,VALID,0,VALID,89.7613,VALID,-0.0169808,VALID,21.064,VALID,147,VALID,1.90646,
2002-01-07, 01:58:00,VALID,918.645,VALID,0,VALID,89.8503,VALID,0,VALID,21.0541,VALID,135,VALID,1.85008,
2002-01-07, 01:59:00,VALID,918.644,VALID,0,VALID,89.9597,VALID,-0.0169808,VALID,21.0549,VALID,140,VALID,1.29102,
2002-01-07, 02:00:00,VALID,918.621,VALID,0,VALID,89.8656,VALID,-0.0339617,VALID,21.0482,VALID,140,VALID,1.61592,
2002-01-07, 02:01:00,VALID,918.601,VALID,0,VALID,89.5667,VALID,0,VALID,21.0379,VALID,150,VALID,1.81044,
2002-01-07, 02:02:00,VALID,918.552,VALID,0,VALID,89.4625,VALID,0,VALID,21.0705,VALID,147,VALID,1.9353,
2002-01-07, 02:03:00,VALID,918.533,VALID,0,VALID,89.4879,VALID,0,VALID,21.0802,VALID,132,VALID,1.21074,
2002-01-07, 02:04:00,VALID,918.515,VALID,0,VALID,89.54,VALID,0,VALID,21.0705,VALID,139,VALID,1.57686,
2002-01-07, 02:05:00,VALID,918.527,VALID,0,VALID,89.521,VALID,0,VALID,21.0417,VALID,126,VALID,1.70413,
2002-01-07, 02:06:00,VALID,918.527,VALID,0,VALID,89.5375,VALID,0,VALID,21.0355,VALID,124,VALID,1.32772,
2002-01-07, 02:07:00,VALID,918.524,VALID,0,VALID,89.7575,VALID,0,VALID,21.0024,VALID,148,VALID,1.33093,
2002-01-07, 02:08:00,VALID,918.528,VALID,0,VALID,89.9635,VALID,-0.0169808,VALID,20.9862,VALID,146,VALID,1.57721,
2002-01-07, 02:09:00,VALID,918.503,VALID,0,VALID,90.0232,VALID,0,VALID,20.9765,VALID,137,VALID,1.43791,
2002-01-07, 02:10:00,VALID,918.484,VALID,0,VALID,90.036,VALID,-0.0169808,VALID,20.9835,VALID,107,VALID,0.788218,
2002-01-07, 02:11:00,VALID,918.486,VALID,0,VALID,90.0589,VALID,0,VALID,20.9542,VALID,130,VALID,1.15039,
2002-01-07, 02:12:00,VALID,918.483,VALID,0,VALID,90.0983,VALID,-0.0169808,VALID,20.9383,VALID,129,VALID,1.40907,
2002-01-07, 02:13:00,VALID,918.474,VALID,0,VALID,90.1746,VALID,0.0169808,VALID,20.9283,VALID,139,VALID,1.50473,
2002-01-07, 02:14:00,VALID,918.474,VALID,0,VALID,90.2051,VALID,0,VALID,20.9313,VALID,155,VALID,1.65245,
2002-01-07, 02:15:00,VALID,918.461,VALID,0,VALID,90.2305,VALID,0,VALID,20.9186,VALID,163,VALID,1.60893,
2002-01-07, 02:16:00,VALID,918.465,VALID,0,VALID,90.3348,VALID,0,VALID,20.9219,VALID,142,VALID,1.89464,
2002-01-07, 02:17:00,VALID,918.473,VALID,0,VALID,90.2776,VALID,0,VALID,20.9151,VALID,147,VALID,1.99979,
2002-01-07, 02:18:00,VALID,918.472,VALID,0,VALID,89.9965,VALID,0,VALID,20.9189,VALID,137,VALID,1.70413,
2002-01-07, 02:19:00,VALID,918.466,VALID,0,VALID,89.8707,VALID,0,VALID,20.9248,VALID,146,VALID,1.82285,
2002-01-07, 02:20:00,VALID,918.463,VALID,0,VALID,89.7855,VALID,-0.0169808,VALID,20.9736,VALID,124,VALID,1.51871,
2002-01-07, 02:21:00,VALID,918.447,VALID,0,VALID,89.7664,VALID,0,VALID,20.9965,VALID,142,VALID,1.64992,
2002-01-07, 02:22:00,VALID,918.409,VALID,0,VALID,89.7638,VALID,-0.0169808,VALID,20.9833,VALID,149,VALID,2.07312,
2002-01-07, 02:23:00,VALID,918.372,VALID,0,VALID,89.9037,VALID,-0.0169808,VALID,20.9806,VALID,151,VALID,1.82853,
2002-01-07, 02:24:00,VALID,918.326,VALID,0,VALID,90.041,VALID,0,VALID,20.9609,VALID,144,VALID,1.86518,
2002-01-07, 02:25:00,VALID,918.3,VALID,0,VALID,90.1479,VALID,0,VALID,20.9318,VALID,142,VALID,1.34732,
2002-01-07, 02:26:00,VALID,918.308,VALID,0,VALID,90.2102,VALID,0,VALID,20.9186,VALID,117,VALID,1.88945,
2002-01-07, 02:27:00,VALID,918.314,VALID,0,VALID,90.1453,VALID,0,VALID,20.9186,VALID,155,VALID,1.61523,
2002-01-07, 02:28:00,VALID,918.313,VALID,0,VALID,90.1568,VALID,0,VALID,20.9057,VALID,145,VALID,1.19162,
2002-01-07, 02:29:00,VALID,918.304,VALID,0,VALID,90.1517,VALID,0,VALID,20.9057,VALID,122,VALID,1.37986,
2002-01-07, 02:30:00,VALID,918.301,VALID,0,VALID,90.2064,VALID,0,VALID,20.9025,VALID,118,VALID,1.81188,
2002-01-07, 02:31:00,VALID,918.29,VALID,0,VALID,90.2331,VALID,0,VALID,20.8993,VALID,103,VALID,1.45861,
2002-01-07, 02:32:00,VALID,918.267,VALID,0,VALID,90.261,VALID,-0.0339617,VALID,20.9097,VALID,109,VALID,1.37859,
2002-01-07, 02:33:00,VALID,918.252,VALID,0,VALID,90.3284,VALID,-0.0169808,VALID,20.903,VALID,107,VALID,1.36116,
2002-01-07, 02:34:00,VALID,918.231,VALID,0,VALID,90.4136,VALID,-0.0169808,VALID,20.9124,VALID,114,VALID,1.66057,
2002-01-07, 02:35:00,VALID,918.217,VALID,0,VALID,90.2305,VALID,-0.0169808,VALID,20.9254,VALID,120,VALID,1.39802,
2002-01-07, 02:36:00,VALID,918.179,VALID,0,VALID,90.1949,VALID,-0.0169808,VALID,20.9445,VALID,134,VALID,1.32984,
2002-01-07, 02:37:00,VALID,918.15,VALID,0,VALID,90.1746,VALID,0.0169808,VALID,20.9703,VALID,120,VALID,1.15508,
2002-01-07, 02:38:01,VALID,918.133,VALID,0,VALID,90.3068,VALID,0,VALID,20.9671,VALID,129,VALID,0.945107,
2002-01-07, 02:39:00,VALID,918.134,VALID,0,VALID,90.4836,VALID,0.0169808,VALID,20.9445,VALID,126,VALID,1.12582,
2002-01-07, 02:40:00,VALID,918.116,VALID,0,VALID,90.6336,VALID,0,VALID,20.9221,VALID,104,VALID,1.40293,
2002-01-07, 02:41:00,VALID,918.102,VALID,0,VALID,90.7392,VALID,0.0169808,VALID,20.8861,VALID,135,VALID,1.26042,
2002-01-07, 02:42:00,VALID,918.063,VALID,0,VALID,90.804,VALID,0,VALID,20.8769,VALID,145,VALID,1.00223,
2002-01-07, 02:43:00,VALID,918.043,VALID,0,VALID,90.7481,VALID,-0.0169808,VALID,20.8672,VALID,143,VALID,1.67637,
2002-01-07, 02:44:00,VALID,918.025,VALID,0,VALID,90.6654,VALID,0,VALID,20.8734,VALID,141,VALID,1.65278,
2002-01-07, 02:45:00,VALID,917.992,VALID,0,VALID,90.6196,VALID,0,VALID,20.8766,VALID,150,VALID,1.13997,
2002-01-07, 02:46:01,VALID,917.972,VALID,0,VALID,90.5815,VALID,0.0169808,VALID,20.8731,VALID,149,VALID,2.06611,
2002-01-07, 02:47:00,VALID,917.958,VALID,0,VALID,90.4276,VALID,0,VALID,20.9025,VALID,139,VALID,1.38405,
2002-01-07, 02:48:00,VALID,917.949,VALID,0,VALID,90.3818,VALID,0,VALID,20.9089,VALID,140,VALID,1.0074,
2002-01-07, 02:49:00,VALID,917.961,VALID,0,VALID,90.3857,VALID,0,VALID,20.9189,VALID,148,VALID,1.62669,
2002-01-07, 02:50:00,VALID,917.952,VALID,0,VALID,90.4251,VALID,0,VALID,20.9097,VALID,153,VALID,1.16753,
2002-01-07, 02:51:00,VALID,917.954,VALID,0,VALID,90.4594,VALID,0,VALID,20.8861,VALID,129,VALID,1.09671,
2002-01-07, 02:52:00,VALID,917.948,VALID,0,VALID,90.6095,VALID,0,VALID,20.8669,VALID,138,VALID,1.39433,
2002-01-07, 02:53:01,VALID,917.955,VALID,0,VALID,90.7595,VALID,0,VALID,20.851,VALID,151,VALID,1.71094,
2002-01-07, 02:54:00,VALID,917.966,VALID,0,VALID,90.8015,VALID,0,VALID,20.8314,VALID,147,VALID,1.06931,
2002-01-07, 02:55:01,VALID,917.965,VALID,0,VALID,90.8091,VALID,0,VALID,20.8214,VALID,148,VALID,2.29329,
2002-01-07, 02:56:00,VALID,917.944,VALID,0,VALID,90.7773,VALID,0,VALID,20.8287,VALID,153,VALID,1.59005,
2002-01-07, 02:57:00,VALID,917.935,VALID,0,VALID,90.8383,VALID,0,VALID,20.8187,VALID,145,VALID,1.68029,
2002-01-07, 02:58:00,VALID,917.926,VALID,0,VALID,90.8879,VALID,-0.0169808,VALID,20.8088,VALID,147,VALID,1.24659,
2002-01-07, 02:59:00,VALID,917.91,VALID,0,VALID,90.9808,VALID,0,VALID,20.7926,VALID,158,VALID,1.52137,
2002-01-07, 03:00:00,VALID,917.906,VALID,0,VALID,90.9909,VALID,0,VALID,20.7829,VALID,156,VALID,1.39947,
2002-01-07, 03:01:00,VALID,917.93,VALID,0,VALID,90.7735,VALID,0,VALID,20.7635,VALID,140,VALID,1.25,
2002-01-07, 03:02:00,VALID,917.922,VALID,0,VALID,90.6781,VALID,0,VALID,20.7539,VALID,142,VALID,0.701823,
2002-01-07, 03:03:00,VALID,917.937,VALID,0,VALID,90.687,VALID,-0.0169808,VALID,20.7474,VALID,135,VALID,0.957682,
2002-01-07, 03:04:00,VALID,917.937,VALID,0,VALID,90.687,VALID,0,VALID,20.7444,VALID,134,VALID,1.13055,
2002-01-07, 03:05:01,VALID,917.954,VALID,0,VALID,90.551,VALID,0.0169808,VALID,20.7606,VALID,135,VALID,1.16385,
2002-01-07, 03:06:00,VALID,917.928,VALID,0,VALID,90.3488,VALID,-0.0169808,VALID,20.7904,VALID,127,VALID,1.475,
2002-01-07, 03:07:00,VALID,917.924,VALID,0,VALID,90.1898,VALID,-0.0169808,VALID,20.829,VALID,130,VALID,0.772768,
2002-01-07, 03:08:00,VALID,917.937,VALID,0,VALID,90.0703,VALID,-0.0169808,VALID,20.8451,VALID,132,VALID,1.3273,
2002-01-07, 03:09:01,VALID,917.929,VALID,0,VALID,90.0334,VALID,-0.0169808,VALID,20.8411,VALID,148,VALID,1.23237,
2002-01-07, 03:10:00,VALID,917.91,VALID,0,VALID,90.0906,VALID,0,VALID,20.8416,VALID,132,VALID,1.12051,
2002-01-07, 03:11:00,VALID,917.937,VALID,0,VALID,90.1301,VALID,0,VALID,20.8314,VALID,131,VALID,0.870271,
2002-01-07, 03:12:00,VALID,917.95,VALID,0,VALID,90.2242,VALID,0,VALID,20.812,VALID,145,VALID,1.03315,
2002-01-07, 03:13:00,VALID,917.95,VALID,0,VALID,90.2331,VALID,0.0169808,VALID,20.7994,VALID,142,VALID,1.57953,
2002-01-07, 03:14:01,VALID,917.954,VALID,0,VALID,89.8452,VALID,0,VALID,20.8088,VALID,143,VALID,1.76823,
2002-01-07, 03:15:00,VALID,917.941,VALID,0,VALID,89.7219,VALID,0.0169808,VALID,20.8478,VALID,133,VALID,1.30469,
2002-01-07, 03:16:01,VALID,917.944,VALID,0,VALID,89.7282,VALID,0.0169808,VALID,20.8734,VALID,122,VALID,1.10826,
2002-01-07, 03:17:00,VALID,917.94,VALID,0,VALID,89.2972,VALID,0,VALID,20.8834,VALID,156,VALID,2.55996,
2002-01-07, 03:18:00,VALID,917.929,VALID,0,VALID,89.1865,VALID,0,VALID,20.9216,VALID,130,VALID,1.59961,
2002-01-07, 03:19:01,VALID,917.926,VALID,0,VALID,89.1738,VALID,-0.0169808,VALID,20.9609,VALID,140,VALID,1.03147,
2002-01-07, 03:20:00,VALID,917.924,VALID,0,VALID,89.128,VALID,0,VALID,20.9709,VALID,152,VALID,1.69236,
2002-01-07, 03:21:01,VALID,917.929,VALID,0,VALID,89.2247,VALID,0.0169808,VALID,20.9674,VALID,151,VALID,1.03495,
2002-01-07, 03:22:00,VALID,917.939,VALID,0,VALID,89.2819,VALID,0,VALID,20.9682,VALID,154,VALID,1.46643,
2002-01-07, 03:23:00,VALID,917.943,VALID,0,VALID,89.3328,VALID,0.0169808,VALID,20.9579,VALID,142,VALID,1.50866,
2002-01-07, 03:24:00,VALID,917.966,VALID,0,VALID,89.0339,VALID,0,VALID,20.9313,VALID,155,VALID,2.06362,
2002-01-07, 03:25:00,VALID,917.961,VALID,0,VALID,88.697,VALID,0,VALID,20.9614,VALID,149,VALID,1.91879,
2002-01-07, 03:26:01,VALID,917.959,VALID,0,VALID,88.6308,VALID,0,VALID,20.9835,VALID,147,VALID,1.74451,
2002-01-07, 03:27:01,VALID,917.966,VALID,0,VALID,88.4007,VALID,0.0169808,VALID,21.0024,VALID,150,VALID,1.91635,
2002-01-07, 03:28:00,VALID,917.978,VALID,0,VALID,88.5723,VALID,0,VALID,21.0255,VALID,130,VALID,1.11895,
2002-01-07, 03:29:01,VALID,917.982,VALID,0,VALID,88.58,VALID,0,VALID,21.0191,VALID,149,VALID,2.10835,
2002-01-07, 03:30:00,VALID,918.016,VALID,0,VALID,88.5507,VALID,0,VALID,20.9999,VALID,140,VALID,1.53762,
2002-01-07, 03:31:00,VALID,918.037,VALID,0,VALID,88.7186,VALID,0.0169808,VALID,20.9927,VALID,127,VALID,1.20625,
2002-01-07, 03:32:00,VALID,918.054,VALID,0,VALID,88.8445,VALID,0.0169808,VALID,20.98,VALID,142,VALID,1.47837,
2002-01-07, 03:33:01,VALID,918.067,VALID,0,VALID,88.9831,VALID,0,VALID,20.9604,VALID,149,VALID,2.41473,
2002-01-07, 03:34:00,VALID,918.054,VALID,0,VALID,89.0174,VALID,0,VALID,20.9375,VALID,147,VALID,1.93477,
2002-01-07, 03:35:00,VALID,918.058,VALID,0,VALID,89.1878,VALID,0,VALID,20.9544,VALID,141,VALID,1.41341,
2002-01-07, 03:36:01,VALID,918.07,VALID,0,VALID,89.334,VALID,0,VALID,20.9219,VALID,138,VALID,1.62869,
2002-01-07, 03:37:01,VALID,918.061,VALID,0,VALID,89.3925,VALID,-0.0169808,VALID,20.9089,VALID,142,VALID,1.42368,
2002-01-07, 03:38:00,VALID,918.058,VALID,0,VALID,89.5019,VALID,0,VALID,20.8861,VALID,119,VALID,0.999589,